Free Severe Weather Alerts by Email and Text Message   

 
Follow iAlert.com on twitter @ialertcom
Search For Active Alerts in Your Area  
  Hi Guest:  [ Sign-up / Services ] [ Login ]

Current weather by "City, St" or "zip code"  

 

Advertise Here

Hazardous Weather Conditions

No active alerts for PHILADELPHIA, PENNSYLVANIA

Current Conditions: PHILADELPHIA, PENNSYLVANIA

Mostly Cloudy


76.0 F

Last Updated on Aug 19 2017, 5:54 am EDT
Humidity: 91%
Wind Speed: N 0.0 mph
Barometer 29.84 in
Dewpoint: 73.0 F
Visibility: 9.00 mi
Precip: --
Heat Index: NA
Wind Chill: NA
Current conditions at:

Philadelphia, Northeast Philadelphia Airport, PA (KPNE)

Lat: 40.07 Lon: -75.013

Local Radar Image active severe weather and emergency alerts image image weather storm and storm spotter reports image weather observation monitoring service image
Local
Radar
Active
Alerts
Storm Reports Weather
Monitoring

Weather Alert Notification Services


ialert severe weather and emergency alerts by text message and email ialert daily weather forecast by email and text message service ialert real-time weather-observation monitoring and alert notification service ialert storm report monitoring alert notification

Observation History for PHILADELPHIA, PENNSYLVANIA


Time Wind
(mph)
Vis
(mi)
Weather Precip (in) Temperature (F) Relative
Humidity
Wind
Chill
(°F)
Heat
Index
(°F)
Pressure
Air Dwpt altimeter
(in)
sea level
(mb)
5:54 am EDT N 0.0 9.00 Mostly Cloudy -- 76.0 73.0 91% NA NA 29.84 1010.2
4:54 am EDT W 4.6 10.00 Overcast -- 77.0 73.0 88% NA NA 29.84 1010.1
3:54 am EDT SW 5.8 10.00 Overcast -- 77.0 73.0 88% NA NA 29.83 1009.9
2:54 am EDT W 8.1 10.00 Overcast -- 76.0 73.0 91% NA NA 29.82 1009.7
1:54 am EDT W 6.9 10.00 Overcast -- 77.0 73.0 88% NA NA 29.84 1010.2
12:54 am EDT W 4.6 10.00 Mostly Cloudy -- 77.0 73.0 88% NA NA 29.83 1009.8
11:54 pm EDT SW 4.6 10.00 Overcast -- 77.0 73.9 90% NA NA 29.84 1010.4
10:54 pm EDT SW 4.6 10.00 A Few Clouds Trace 77.0 73.0 88% NA NA 29.85 1010.5
9:54 pm EDT SW 3.5 10.00 Light Rain Trace 76.0 73.0 91% NA NA 29.83 1010.0
8:54 pm EDT N 0.0 10.00 Partly Cloudy -- 75.0 72.0 90% NA NA 29.82 1009.7
7:54 pm EDT 3.5 10.00 A Few Clouds 00.08 76.0 73.0 91% NA NA 29.81 1009.2
6:54 pm EDT 5.8 G 17.3 4.00 Thunderstorm Heavy Rain Fog/Mist 01.38 76.0 72.0 88% NA NA 29.83 1009.8
5:54 pm EDT S 3.5 10.00 Thunderstorm -- 88.0 75.9 68% NA 99 29.78 1008.3
4:54 pm EDT 3.5 10.00 A Few Clouds -- 89.0 75.9 65% NA 100 29.79 1008.5
3:54 pm EDT SW 6.9 10.00 Partly Cloudy -- 90.0 77.0 66% NA 103 29.77 1008.1
2:54 pm EDT 4.6 10.00 Mostly Cloudy -- 87.0 77.0 72% NA 99 29.81 1009.2
1:54 pm EDT SW 6.9 8.00 Overcast -- 83.0 77.0 82% NA 92 29.85 1010.5
12:54 pm EDT 4.6 8.00 Overcast -- 82.0 75.9 82% NA 89 29.86 1011.0
11:54 am EDT 4.6 8.00 Overcast -- 82.0 75.9 82% NA 89 29.87 1011.4
10:54 am EDT SW 5.8 8.00 Overcast -- 81.0 75.9 85% NA 87 29.89 1011.9
9:54 am EDT SW 4.6 4.00 Fog/Mist -- 79.0 75.0 88% NA NA 29.89 1011.9
8:54 am EDT 3.5 5.00 Fog/Mist -- 78.0 73.9 87% NA NA 29.89 1012.0
7:54 am EDT S 3.5 10.00 Overcast 00.02 76.0 73.0 91% NA NA 29.89 1012.0
6:54 am EDT N 0.0 10.00 Overcast -- 77.0 71.1 82% NA NA 29.90 1012.3

Regional Weather Observation:


Pottstown, Pottstown Limerick Airport, PA (KPTW)

Fog/Mist
71.0 F

Doylestown, Doylestown Airport, PA (KDYL)

Partly Cloudy
72.0 F

Quakertown Airport, PA (KUKT)

Fair
72.0 F

Allentown Queen City Municipal Airport, PA (KXLL)

Fog/Mist
72.0 F

Reading, Reading Regional Airport, PA (KRDG)

Fair
72.0 F

Philadelphia, Philadelphia International Airport, PA (KPHL)

Mostly Cloudy
76.0 F

Advertise Here


Advertise Here